GEFSMA_con_cape1000_204.txt.gz
Probability
48 45 71 61 35 29 29 42 35 39 29 29 13 19 16 23 19 35 45 58 52 58 55 52 32 58 55 55 35 39 45 42 42 42 35 23 26 35 23 13 19 16 19
61 55 65 68 39 32 32 39 39 55 39 35 26 26 26 26 48 48 35 55 48 58 58 52 52 58 52 55 52 42 48 48 48 48 39 35 29 23 19 16 19 19 16
74 68 58 68 52 45 55 58 45 48 45 42 35 35 42 42 52 52 45 45 61 55 58 65 61 55 58 55 55 52 55 55 58 35 39 35 39 32 26 19 13 13 16
77 81 58 55 55 35 52 61 58 48 52 58 52 52 52 68 52 58 55 61 65 39 45 52 55 55 55 58 55 48 45 48 42 55 39 23 13 13 13 16 16 13 16
71 77 77 74 71 61 58 52 58 61 71 68 48 68 55 58 52 39 42 32 45 52 48 45 48 58 58 58 61 65 55 52 39 39 29 26 19 23 13 10 13 10 13
71 74 71 77 68 71 81 74 74 77 81 74 45 39 55 52 48 52 45 39 42 42 35 32 58 55 45 58 61 65 61 61 58 39 35 26 23 16 16 13 13 6 6
81 81 68 84 81 74 71 55 71 77 68 74 58 48 45 42 55 58 45 48 32 32 39 42 61 65 68 32 39 65 65 55 58 61 55 35 39 23 13 13 13 13 10
71 61 81 74 77 84 77 74 90 71 58 61 65 52 32 35 61 6 48 55 35 42 32 32 55 58 55 61 29 16 35 55 55 58 58 55 45 42 32 16 16 6 6
77 81 71 71 77 74 77 84 81 77 77 68 55 52 45 26 10 10 29 23 42 45 35 29 39 55 55 52 61 13 29 26 45 48 52 55 42 32 29 19 19 10 10
81 81 77 77 81 77 84 74 71 77 77 68 55 52 35 26 32 16 13 19 35 52 42 23 23 35 45 48 48 23 19 13 16 26 45 48 52 35 32 26 23 16 13
71 68 68 74 74 71 71 71 77 71 71 68 55 52 45 52 48 48 29 19 26 42 32 39 42 39 48 48 55 32 13 10 6 6 19 29 35 39 35 29 35 29 26
71 61 58 74 71 68 71 74 71 65 65 71 65 55 55 52 48 48 45 39 35 23 19 42 32 35 42 42 35 10 10 6 0 3 3 6 16 16 23 26 26 26 29
52 58 48 61 68 68 65 65 65 65 68 61 65 52 52 42 42 39 35 32 26 23 19 23 23 32 29 35 32 6 3 3 0 0 0 3 3 3 3 10 16 13 16
42 42 48 52 52 55 45 58 52 55 58 58 48 58 45 32 26 32 29 23 23 26 23 16 19 16 16 19 16 0 10 0 0 0 0 0 0 0 3 3 3 3 3
42 42 48 48 42 48 39 52 55 52 52 48 42 48 42 23 29 29 23 19 23 23 13 26 19 10 23 19 6 13 19 3 0 0 0 0 0 0 0 0 0 0 0
35 32 39 35 35 35 32 39 39 39 42 39 39 39 35 23 19 23 23 26 26 29 16 16 23 16 23 3 3 16 16 3 0 0 0 0 0 0 0 0 0 0 0
32 29 32 35 32 29 32 32 29 35 35 39 35 32 32 29 26 26 32 35 35 29 19 13 10 13 23 19 16 19 19 23 10 0 0 0 0 0 0 0 0 0 0
29 26 29 32 32 29 29 29 26 26 23 32 32 29 29 29 29 23 32 29 35 39 23 19 23 13 19 10 13 13 10 3 6 0 0 0 0 0 0 0 0 0 0
26 26 29 32 29 29 26 26 23 23 26 26 23 26 23 26 26 26 26 26 35 16 23 19 10 23 6 6 16 13 6 13 3 0 0 0 0 0 0 0 0 0 0
29 26 23 19 26 23 26 23 23 23 23 19 19 19 19 26 26 26 16 16 23 23 23 19 13 6 10 10 13 10 6 6 3 0 0 0 0 0 0 0 0 0 0
26 26 26 26 23 23 19 19 19 16 23 19 16 13 13 10 6 6 3 10 19 23 16 10 10 3 6 13 10 10 6 6 3 6 6 0 0 0 0 0 0 0 0
26 26 26 23 23 13 10 10 13 19 19 16 16 13 10 3 0 0 0 0 0 6 16 19 13 10 6 10 10 3 3 3 3 3 3 3 0 0 0 0 0 0 0
26 23 23 23 19 13 0 0 0 10 13 13 16 10 0 0 0 0 0 0 0 0 0 6 13 13 10 6 3 3 3 0 0 3 0 0 0 0 0 0 0 0 0
23 23 19 19 13 6 0 0 0 6 13 10 3 6 3 0 0 0 0 0 0 0 0 0 3 3 0 0 0 0 3 0 0 0 0 0 0 0 0 0 0 0 0
13 19 16 13 13 3 0 0 0 3 6 3 0 0 0 0 0 0 0 0 0 0 0 0 0 0 0 0 0 0 0 0 0 0 0 0 0 0 0 0 0 0 0
10 13 6 10 10 10 0 0 0 3 3 0 0 0 0 0 0 0 0 0 0 0 0 0 0 0 0 0 0 0 0 0 0 0 0 0 0 0 0 0 0 0 0

GEFSMA_con_cape1000_210.txt.gz
Probability
90 77 94 94 90 90 87 87 84 77 65 55 52 42 39 48 45 35 42 71 68 68 61 45 35 42 48 48 42 35 39 39 39 42 35 26 35 26 26 29 32 19 23
94 94 100 94 97 94 97 90 87 90 90 84 65 55 55 61 61 52 42 65 74 74 71 58 52 48 48 52 48 42 45 52 48 45 45 39 39 32 35 26 26 23 13
94 97 97 94 94 90 81 84 87 94 94 81 77 65 61 68 58 65 55 45 42 65 74 71 74 74 55 52 55 55 48 58 55 58 55 45 45 35 26 26 26 23 23
97 100 97 100 100 90 87 87 84 87 87 77 74 61 71 74 65 68 65 55 52 23 45 74 74 74 71 55 58 58 58 52 55 45 45 42 45 29 23 26 19 19 19
87 94 97 100 97 90 87 84 97 84 77 77 71 61 65 68 68 55 68 55 58 52 42 42 74 74 65 58 58 58 61 55 48 39 35 35 35 35 19 13 13 13 13
90 94 97 97 90 90 97 94 87 94 84 77 55 45 65 61 68 55 61 45 52 45 45 42 32 29 58 68 65 58 58 58 55 42 32 35 32 29 29 16 6 6 6
90 90 87 90 97 94 90 90 90 87 87 84 71 61 58 52 58 61 65 65 55 48 45 42 48 42 19 42 58 68 65 58 55 48 48 39 32 35 19 19 16 13 6
81 74 87 90 90 97 94 94 90 87 87 77 77 68 42 42 58 42 58 58 52 45 55 45 58 65 48 35 10 29 52 58 55 52 55 48 39 32 35 19 16 16 13
74 87 87 84 81 87 81 90 90 87 74 77 84 74 58 45 52 52 52 48 48 55 48 45 55 52 55 48 32 10 42 42 55 52 55 55 45 29 23 23 23 19 13
77 77 77 74 81 74 77 77 74 87 77 74 81 77 68 61 52 35 48 55 58 58 52 39 35 45 45 48 42 19 16 16 29 42 42 48 42 35 19 16 19 23 16
81 77 74 77 74 77 77 74 74 77 68 61 61 55 58 58 45 45 29 42 42 45 52 45 42 32 39 39 32 23 13 13 13 13 29 35 35 32 32 26 23 26 26
74 68 68 71 71 71 71 71 74 77 77 74 68 61 58 58 45 35 29 26 26 35 29 35 32 35 35 26 26 23 16 10 10 6 10 13 19 19 23 23 29 23 23
71 71 61 61 61 61 58 61 61 65 65 65 61 48 52 52 39 39 23 29 29 32 29 29 26 26 26 23 23 13 13 3 0 0 3 3 3 10 10 16 23 19 23
65 65 65 58 55 55 52 55 55 52 58 55 42 45 45 39 32 32 26 16 16 10 16 23 32 29 23 23 16 0 10 0 0 0 0 0 0 0 0 0 0 0 0
52 52 55 45 45 42 39 35 45 45 48 48 45 39 39 35 32 35 32 19 13 3 10 16 23 19 26 23 10 10 16 3 0 0 0 0 0 0 0 0 0 0 0
55 45 39 35 35 35 32 39 39 39 39 39 42 35 32 42 35 29 32 26 16 16 10 23 23 16 19 13 0 13 19 6 0 0 0 0 0 0 0 0 0 0 0
45 35 35 39 32 32 32 32 29 29 32 32 26 23 29 29 29 29 32 26 19 19 13 19 26 23 16 16 10 19 16 3 0 0 0 0 0 0 0 0 0 0 0
32 32 35 35 29 29 26 26 23 19 23 19 16 19 23 23 29 32 29 26 26 23 23 19 19 19 19 19 16 19 10 10 3 0 0 0 0 0 0 0 0 0 0
26 29 32 32 29 29 26 23 23 19 23 16 19 19 19 19 16 16 23 23 29 13 26 23 6 16 16 13 16 13 6 10 3 0 0 0 0 0 0 0 0 0 0
26 26 35 29 26 19 23 19 16 19 19 19 13 13 13 10 6 16 16 16 13 16 16 16 16 10 13 10 10 3 3 3 0 0 0 0 0 0 0 0 0 0 0
19 26 29 23 19 16 16 16 16 16 16 13 13 13 10 3 3 3 0 10 3 13 10 6 6 6 6 6 3 3 3 3 3 0 0 0 0 0 0 0 0 0 0
23 23 19 19 13 16 10 13 16 16 10 6 10 10 3 0 0 0 0 0 0 0 3 3 3 3 6 3 6 3 3 0 3 0 0 0 0 0 0 0 0 0 0
23 19 19 6 6 6 6 3 0 13 6 6 13 10 6 3 0 0 0 0 0 0 0 3 0 3 3 6 3 3 0 0 0 0 0 0 0 0 0 0 0 0 0
23 13 6 6 6 3 6 3 0 3 10 13 13 13 6 3 3 3 3 0 3 0 0 0 0 0 0 0 0 0 0 0 0 0 0 0 0 0 0 0 0 0 0
16 6 6 6 6 3 3 0 0 6 10 13 10 6 3 0 0 0 0 0 0 0 0 0 0 0 0 0 0 0 0 0 0 0 0 0 0 0 0 0 0 0 0
16 6 6 6 6 6 3 3 0 3 6 6 10 3 0 0 0 0 0 0 0 0 0 0 0 0 0 0 0 0 0 0 0 0 0 0 0 0 0 0 0 0 0

GEFSMA_con_cape1000_216.txt.gz
Probability
0 0 3 3 0 3 3 6 0 3 3 0 3 3 3 0 3 3 10 55 61 71 65 61 52 48 42 39 39 35 32 39 42 39 29 26 32 26 23 19 16 19 19
0 3 3 3 6 6 6 0 3 3 3 3 3 6 3 3 3 0 3 39 71 81 81 55 48 45 48 45 39 45 45 39 35 39 39 39 29 35 29 23 16 19 26
6 6 6 6 3 6 10 6 10 3 3 3 3 3 3 6 3 3 0 6 32 52 77 74 65 61 52 52 48 42 39 42 39 35 35 39 26 26 29 23 16 16 23
13 10 6 6 10 13 10 6 10 6 3 3 3 3 3 3 3 3 3 3 3 6 39 71 71 68 65 58 52 55 52 48 42 45 45 42 23 19 16 19 19 19 16
26 19 13 10 13 13 13 10 3 3 3 3 3 0 0 0 0 0 3 3 6 6 6 16 68 68 61 65 65 55 52 55 35 35 42 35 35 35 19 16 16 16 16
29 23 13 13 6 6 13 10 10 3 3 0 0 3 0 0 0 0 0 3 3 3 0 0 10 29 58 68 68 65 55 48 42 32 35 35 35 35 29 16 13 6 13
32 23 26 26 10 10 13 13 6 10 6 6 6 0 0 0 0 0 0 3 3 0 0 0 0 3 10 39 52 68 55 48 48 42 42 29 32 35 23 16 6 10 6
35 35 29 23 19 10 6 6 3 6 6 6 3 0 0 0 0 0 0 0 0 0 3 0 0 0 0 0 3 26 52 52 45 39 42 32 26 26 23 19 13 6 6
42 35 29 26 26 19 13 13 6 6 3 3 3 0 0 0 0 0 0 0 0 0 3 6 6 0 0 0 0 0 26 29 39 42 35 29 29 16 19 16 16 10 10
45 42 39 35 29 26 13 16 6 6 6 6 3 3 0 0 0 0 0 0 0 0 0 3 6 3 0 0 0 0 3 10 23 35 32 29 29 26 13 10 10 13 13
42 42 39 29 29 23 16 23 13 13 10 6 3 3 3 3 3 3 3 0 0 0 0 0 0 3 6 0 0 0 0 0 10 13 23 29 29 23 23 19 19 19 13
26 26 29 23 19 16 13 16 16 13 13 10 3 3 3 3 3 3 3 0 3 0 0 0 0 0 3 3 3 6 6 0 0 0 6 13 23 23 26 23 26 26 23
23 16 16 16 13 16 19 16 16 16 13 13 13 6 3 6 3 3 3 3 0 0 0 0 0 0 0 0 3 3 6 6 0 0 0 0 10 10 10 13 16 19 19
16 13 13 13 13 16 19 19 13 10 13 13 10 10 10 10 10 3 3 3 3 0 0 3 0 0 0 0 0 0 3 3 0 0 0 0 0 3 3 6 6 6 10
13 13 13 13 13 16 16 16 10 10 10 10 10 10 10 10 10 10 6 3 3 0 0 0 0 0 0 0 0 0 0 3 3 0 0 0 0 0 0 0 0 0 0
13 13 13 13 13 16 10 13 13 13 13 13 13 10 10 10 10 10 3 3 3 0 0 0 0 0 0 0 0 0 0 0 0 0 0 0 0 0 0 0 0 0 0
10 10 10 6 10 10 10 10 13 13 13 13 13 13 10 10 10 6 3 3 3 3 0 0 0 0 0 0 0 0 0 0 0 0 0 0 0 0 0 0 0 0 0
10 6 10 6 6 10 10 13 13 13 13 13 13 13 10 6 3 3 3 0 0 0 0 0 0 0 0 0 0 0 0 0 0 0 0 0 0 0 0 0 0 0 0
10 10 6 10 10 10 10 10 10 13 10 6 6 6 6 6 0 0 0 0 0 0 0 0 0 0 0 0 0 0 0 0 0 0 0 0 0 0 0 0 0 0 0
10 10 10 10 10 10 10 10 3 3 6 6 6 6 6 3 3 0 0 0 0 0 0 0 0 0 0 0 0 0 0 0 0 0 0 0 0 0 0 0 0 0 0
10 10 6 6 6 10 10 3 3 3 6 6 6 6 3 3 0 0 0 0 0 0 0 0 0 0 0 0 0 0 0 0 0 0 0 0 0 0 0 0 0 0 0
6 6 6 6 6 6 3 3 3 3 3 6 6 3 3 0 0 0 0 0 0 0 0 0 0 0 0 0 0 0 0 0 0 0 0 0 0 0 0 0 0 0 0
3 3 3 3 3 3 3 3 0 0 0 0 3 3 3 0 0 0 0 0 0 0 0 0 0 0 0 0 0 0 0 0 0 0 0 0 0 0 0 0 0 0 0
3 3 3 3 3 3 3 3 3 0 0 0 0 3 3 0 0 0 0 0 0 0 0 0 0 0 0 0 0 0 0 0 0 0 0 0 0 0 0 0 0 0 0
3 3 3 3 3 3 3 3 0 3 3 0 0 0 3 3 0 0 0 0 0 0 0 0 0 0 0 0 0 0 0 0 0 0 0 0 0 0 0 0 0 0 0
3 3 3 3 3 3 3 3 0 3 3 3 0 0 0 0 0 0 0 0 0 0 0 0 0 0 0 0 0 0 0 0 0 0 0 0 0 0 0 0 0 0 0

GEFSMA_con_cape1000_222.txt.gz
Probability
0 0 0 0 3 3 3 3 0 3 6 10 10 3 6 3 3 3 6 29 58 61 61 52 61 55 45 35 39 32 32 29 26 26 19 26 23 13 16 16 16 23 16
0 0 0 0 3 3 3 3 3 3 3 3 6 6 3 3 3 3 3 13 48 65 58 52 52 48 45 35 39 45 32 32 26 26 23 23 26 23 19 16 19 19 13
0 0 0 0 3 3 3 3 6 3 0 0 3 3 3 3 3 3 3 13 16 48 55 61 58 52 45 48 45 39 42 32 29 26 26 26 26 29 26 26 23 23 23
0 0 0 3 3 6 3 0 3 3 3 3 3 3 3 3 3 3 3 3 6 16 29 48 61 65 58 55 65 61 48 45 39 29 19 19 19 16 19 26 19 16 13
0 0 3 3 3 3 3 3 3 3 3 3 3 3 3 0 0 0 0 0 0 3 13 19 48 61 58 55 58 55 58 52 45 42 32 23 19 26 13 16 16 16 13
6 3 3 3 0 3 3 3 3 3 3 3 3 6 3 3 3 3 0 0 0 3 6 6 19 26 45 58 55 55 55 52 48 35 29 26 26 26 16 10 10 10 6
3 3 3 3 3 3 3 3 3 3 3 3 3 0 0 0 0 0 0 0 3 0 0 3 6 6 16 32 45 52 42 39 45 42 32 29 29 26 26 13 6 6 6
6 6 3 6 6 3 3 3 0 3 3 3 3 0 3 0 0 0 0 3 0 0 0 3 0 0 6 6 6 19 29 35 39 39 35 32 26 19 16 16 10 6 6
16 16 13 6 6 6 6 0 0 0 3 0 0 0 3 0 0 0 0 0 0 3 6 3 0 0 0 3 3 3 19 29 29 29 35 35 26 16 16 13 13 13 6
26 23 16 10 6 6 6 10 3 3 3 3 0 0 3 3 3 3 3 0 3 6 3 3 3 3 0 0 0 0 0 0 16 16 23 35 26 23 13 13 10 6 6
13 19 19 19 10 6 6 3 3 3 0 0 0 3 3 3 3 3 3 3 3 6 6 6 6 0 0 0 6 0 0 0 0 3 16 23 26 26 23 19 16 16 13
3 10 10 10 10 6 6 10 6 10 6 0 3 3 3 3 3 3 3 3 3 3 3 3 3 0 0 0 0 0 0 0 0 0 0 3 13 10 16 16 16 13 13
6 6 10 10 10 10 10 10 10 6 6 6 6 6 3 3 3 3 6 6 6 3 3 3 0 0 0 0 0 0 0 0 0 0 0 0 3 3 6 13 16 10 10
6 6 10 13 13 13 13 10 10 10 10 10 10 10 10 10 10 6 6 10 10 3 3 0 0 0 0 0 0 0 0 0 0 0 0 0 0 0 0 3 3 3 6
6 10 10 10 6 6 6 6 10 10 10 10 10 10 10 10 10 10 6 6 10 3 3 0 0 0 0 0 0 0 3 0 0 0 0 0 0 0 0 0 0 3 3
6 10 6 6 6 6 6 6 6 6 6 10 13 13 13 10 10 10 10 10 6 3 3 0 0 0 0 0 0 0 0 0 0 0 0 0 0 0 0 0 0 0 0
6 6 6 6 6 6 6 6 6 6 6 10 10 13 13 13 10 10 6 3 3 3 3 0 0 0 0 0 0 0 0 0 0 0 0 0 0 0 0 0 0 0 0
6 6 6 6 6 6 6 6 6 6 10 10 6 6 6 6 6 3 3 0 0 0 0 0 0 0 0 0 0 0 0 0 0 0 0 0 0 0 0 0 0 0 0
3 6 6 6 6 6 6 3 3 3 3 0 0 3 6 6 6 6 0 0 0 0 0 0 0 0 0 0 0 0 0 0 0 0 0 0 0 0 0 0 0 0 0
3 6 3 6 6 3 3 3 3 0 0 0 3 3 3 6 6 6 0 0 0 0 0 0 0 0 0 0 0 0 0 0 0 0 0 0 0 0 0 0 0 0 0
3 3 3 3 3 3 3 3 3 3 3 3 3 3 3 3 3 3 0 3 0 0 0 0 0 0 0 0 0 0 0 0 0 0 0 0 0 0 0 0 0 0 0
6 3 3 3 0 0 0 0 0 3 3 3 3 3 6 0 0 0 0 0 0 0 0 0 0 0 0 0 0 0 0 0 0 0 0 0 0 0 0 0 0 0 0
3 6 6 3 3 3 0 0 0 0 0 3 3 3 3 3 0 0 0 0 0 0 0 0 0 0 0 0 0 0 0 0 0 0 0 0 0 0 0 0 0 0 0
3 3 3 3 3 3 0 0 0 0 0 0 3 3 3 3 0 0 0 0 0 0 0 0 0 0 0 0 0 0 0 0 0 0 0 0 0 0 0 0 0 0 0
3 3 3 3 0 0 0 0 0 0 0 3 3 3 3 3 0 0 0 0 0 0 0 0 0 0 0 0 0 0 0 0 0 0 0 0 0 0 0 0 0 0 0
3 3 3 0 0 0 0 0 0 0 0 3 3 3 0 0 0 0 0 0 0 0 0 0 0 0 0 0 0 0 0 0 0 0 0 0 0 0 0 0 0 0 0

GEFSMA_con_cape1000_228.txt.gz
Probability
42 42 58 61 39 48 35 52 39 39 35 16 16 13 10 13 16 16 35 48 42 58 48 45 35 35 32 29 19 23 29 35 26 26 29 35 29 23 19 16 16 16 19
55 52 55 58 55 55 42 55 42 52 42 29 29 29 23 19 23 26 13 42 42 52 55 52 52 45 42 39 29 26 32 29 32 35 32 32 32 29 26 16 16 23 23
58 58 39 45 61 58 61 65 58 42 42 35 35 35 35 35 29 35 19 19 32 39 58 55 55 55 48 39 39 35 45 35 35 32 29 29 26 32 26 16 16 19 16
68 71 58 52 61 52 42 61 45 48 45 48 45 42 45 52 39 39 26 29 42 32 48 48 52 48 48 45 48 48 45 39 32 32 32 26 26 23 23 19 16 23 19
61 65 61 77 61 48 35 35 48 48 48 55 48 55 42 42 42 35 32 32 32 48 45 52 52 61 45 52 48 48 48 45 42 32 35 32 35 32 19 16 19 23 10
65 65 55 84 52 52 55 58 58 65 71 68 26 29 39 35 35 35 29 29 35 32 23 29 48 52 42 52 48 48 48 58 48 35 26 35 32 32 19 13 10 13 13
68 77 58 74 74 55 61 58 68 61 61 61 55 45 32 23 23 29 26 23 19 19 29 39 39 52 45 29 32 42 45 45 52 48 42 35 29 29 29 10 10 6 10
65 52 77 68 68 77 77 74 77 71 55 58 68 48 32 23 29 10 23 32 23 26 29 29 42 45 39 39 32 32 39 45 45 42 39 32 39 29 26 26 13 6 6
65 71 68 68 71 58 61 77 74 74 68 58 61 55 45 23 23 13 26 23 29 29 23 26 19 29 35 35 32 16 29 35 42 42 42 32 39 26 19 13 13 13 6
65 65 61 65 71 65 71 65 71 71 71 58 58 74 45 35 26 16 23 19 26 32 32 16 10 13 29 32 32 13 16 16 26 29 35 32 35 29 19 16 19 13 10
61 58 61 58 61 61 65 68 71 68 61 58 52 45 48 52 29 19 19 23 23 23 26 26 32 29 23 23 29 19 3 0 0 6 16 26 32 29 19 16 16 16 13
45 45 48 48 42 45 45 48 45 42 39 45 52 42 45 42 32 32 16 19 16 19 23 26 23 26 23 23 10 3 0 0 0 0 0 6 16 23 26 19 19 19 23
45 48 32 35 35 32 39 39 42 35 35 39 32 29 45 42 32 29 23 13 16 16 23 23 13 19 16 16 13 0 0 0 0 0 0 0 0 3 10 16 23 23 23
42 39 35 29 32 29 26 35 29 26 32 32 32 39 42 32 29 26 29 23 19 16 16 16 19 16 13 16 0 0 3 0 0 0 0 0 0 0 0 0 3 10 13
39 29 26 26 29 26 29 26 26 23 26 26 26 26 32 26 29 26 23 26 19 13 13 19 23 19 13 16 0 6 6 0 0 0 0 0 0 0 0 0 0 0 0
39 32 26 26 26 23 23 26 19 23 26 26 19 13 16 13 16 19 16 23 29 19 13 13 23 19 19 6 3 13 6 0 0 0 0 0 0 0 0 0 0 0 0
39 32 29 26 19 19 19 26 13 16 16 16 16 13 10 10 13 16 16 19 26 16 16 13 13 13 13 10 3 10 3 3 0 0 0 0 0 0 0 0 0 0 0
32 26 29 16 13 13 19 16 13 16 16 16 13 10 3 3 6 10 10 6 10 10 13 13 10 10 6 10 6 6 0 0 0 0 0 0 0 0 0 0 0 0 0
26 23 23 23 13 13 13 10 10 10 10 10 6 3 3 3 3 6 6 6 6 6 10 6 6 6 6 3 6 3 3 3 0 0 0 0 0 0 0 0 0 0 0
23 19 19 19 13 10 10 6 6 6 10 6 6 3 3 3 3 6 6 10 10 6 6 6 3 6 6 6 6 3 3 3 3 3 0 0 0 0 0 0 0 0 0
16 16 13 13 10 6 6 6 6 6 6 6 6 6 3 3 3 3 6 6 6 6 6 6 6 6 6 3 3 3 3 3 3 3 3 3 3 0 0 0 0 0 0
13 16 13 10 10 3 3 0 3 3 6 6 6 3 3 3 3 3 0 0 3 3 6 6 6 6 6 6 6 0 0 3 3 3 3 3 3 0 0 0 0 0 0
13 13 13 10 6 3 0 0 0 3 3 3 3 6 3 0 3 3 3 3 0 0 0 6 3 3 3 3 3 3 3 0 3 3 3 0 0 0 0 0 0 0 0
13 6 3 6 6 3 0 0 0 0 0 0 3 6 3 3 3 3 3 3 3 3 3 3 3 3 3 3 3 3 3 3 0 0 0 0 0 0 0 0 0 0 0
13 13 10 10 6 6 3 0 0 3 3 6 3 3 6 3 3 0 3 3 3 3 3 0 0 0 0 0 3 3 3 0 0 0 0 0 0 0 0 0 0 0 0
13 10 3 10 10 10 3 0 0 3 6 6 3 3 3 3 0 0 3 3 3 3 3 3 0 0 0 0 0 3 0 0 0 0 0 0 0 0 0 0 0 0 0

GEFSMA_con_cape1000_234.txt.gz
Probability
90 87 87 87 84 90 87 84 77 68 61 52 29 23 19 23 35 35 26 55 55 58 45 42 45 45 32 26 26 23 26 23 29 29 29 26 26 23 23 26 29 29 26
97 94 84 77 81 81 84 90 87 87 77 58 45 32 29 29 42 42 26 35 52 61 58 48 48 39 39 32 32 29 26 32 32 35 26 29 29 26 29 26 29 29 29
97 94 94 94 87 90 84 84 81 81 65 55 48 39 42 48 45 48 39 45 39 48 58 61 58 55 48 48 39 39 35 42 45 39 32 29 23 26 26 23 23 23 19
87 94 97 90 90 90 87 94 84 74 68 74 68 58 55 61 55 48 42 48 32 23 39 65 65 58 55 58 55 48 48 45 45 39 35 29 32 26 23 19 19 19 19
81 84 97 97 84 87 94 84 81 77 74 71 65 68 65 58 55 35 45 39 29 45 19 26 61 58 52 52 52 52 55 48 52 45 35 35 29 29 23 19 16 13 10
74 84 90 90 84 87 84 87 87 84 74 68 35 39 55 55 52 48 35 29 32 23 26 16 26 35 45 48 48 48 52 52 52 48 39 29 32 32 23 16 19 16 10
74 90 84 90 87 84 87 84 81 77 68 68 71 58 48 39 42 39 39 35 29 29 26 26 26 26 23 35 45 52 55 52 45 42 35 32 29 29 23 16 13 13 13
77 68 94 81 81 94 90 84 84 68 65 68 71 61 45 35 32 23 29 32 26 32 29 19 26 35 35 26 16 35 52 48 48 42 35 39 42 29 26 16 13 13 10
74 81 81 84 87 87 90 90 84 71 55 65 71 65 52 42 32 26 26 19 29 29 29 23 26 26 32 23 23 10 29 29 39 35 39 35 35 29 23 13 16 13 10
77 68 81 84 84 87 87 71 74 68 61 52 55 58 58 48 29 23 16 23 23 26 26 16 19 26 26 26 19 13 16 19 29 35 39 39 39 42 23 19 16 16 16
81 61 71 71 74 71 65 65 65 61 65 48 48 48 45 42 39 29 13 13 23 23 26 26 26 26 23 19 16 13 10 10 13 19 26 29 26 23 19 19 16 19 19
77 65 65 65 65 61 65 61 61 58 65 58 58 55 42 39 39 26 13 13 16 19 16 19 13 16 13 13 16 6 3 0 0 0 10 13 13 16 23 19 23 19 23
71 68 58 58 58 55 45 48 52 48 48 52 55 52 45 39 35 26 19 13 10 13 13 16 16 10 6 6 0 0 3 0 0 0 0 3 6 10 10 13 19 16 19
61 65 58 45 39 35 32 45 42 42 45 52 26 35 39 35 32 29 13 6 6 10 10 10 13 16 13 6 0 0 3 0 0 0 0 0 0 0 0 0 0 3 6
58 52 45 45 35 35 35 42 42 42 35 32 35 26 23 16 13 13 6 10 3 3 3 10 10 16 16 10 0 3 6 0 0 0 0 0 0 0 0 0 0 0 3
58 48 45 35 35 35 35 35 35 32 29 29 35 23 19 16 13 13 6 6 3 3 3 6 6 10 13 3 3 6 3 3 0 0 0 0 0 0 0 0 0 0 0
55 48 48 35 39 35 35 32 26 23 26 26 19 13 16 13 16 13 13 13 6 3 3 3 10 10 13 10 3 6 6 6 0 0 0 0 0 0 0 0 0 0 0
48 45 42 42 39 26 26 26 23 26 23 26 23 19 10 10 26 16 10 3 10 6 6 6 6 10 6 6 3 6 0 0 6 0 0 0 0 0 0 0 0 0 0
45 42 42 32 32 32 26 16 16 16 23 16 13 6 3 3 3 16 16 13 10 6 10 6 6 3 3 3 0 0 0 3 0 0 0 0 0 0 0 0 0 0 0
45 39 32 32 26 23 23 19 23 19 19 13 10 10 3 3 3 3 6 10 13 10 10 3 3 3 3 3 3 3 0 0 0 0 0 0 0 0 0 0 0 0 0
32 32 35 26 23 19 16 10 16 10 16 10 6 6 3 3 3 3 3 3 6 6 6 6 3 3 3 3 3 3 0 0 0 0 0 0 0 0 0 0 0 0 0
35 26 29 23 19 10 3 3 6 6 3 10 10 6 3 3 3 3 0 0 0 6 6 3 3 3 3 3 3 3 0 0 0 0 0 0 0 0 0 0 0 0 0
39 35 29 26 19 10 3 3 0 6 6 6 3 10 0 0 3 3 3 3 0 0 0 3 3 3 3 3 3 3 3 0 0 0 0 0 0 0 0 0 0 0 0
39 35 29 19 19 10 3 3 0 6 6 3 3 6 3 3 3 3 3 3 3 3 3 0 3 3 3 3 3 3 3 3 3 0 0 0 0 0 0 0 0 0 0
35 35 23 19 16 13 6 3 0 3 10 6 3 3 3 3 3 3 3 3 3 3 3 0 0 3 3 3 3 3 3 3 3 0 0 0 0 0 0 0 0 0 0
29 32 23 23 13 13 6 3 0 3 10 6 6 3 3 0 0 0 0 3 3 3 3 0 0 0 0 0 0 0 3 3 3 3 0 0 0 0 0 0 0 0 0

GEFSMA_con_cape1000_240.txt.gz
Probability
0 3 3 0 0 0 0 0 0 0 0 0 0 0 0 0 0 0 3 58 71 77 61 55 45 45 35 35 29 29 29 26 32 39 32 26 26 26 26 26 32 32 32
3 6 3 0 3 3 0 0 0 0 0 3 3 0 0 0 0 0 0 29 71 71 65 58 52 48 39 32 29 35 29 29 35 35 39 32 26 23 26 26 32 32 32
3 3 0 0 3 3 0 0 0 0 0 3 3 3 3 3 3 0 0 3 13 61 65 65 58 52 45 45 42 35 29 26 32 32 35 29 35 32 23 23 26 29 29
10 0 6 3 6 6 3 0 0 3 3 3 6 0 3 6 6 6 6 3 0 6 32 58 61 55 45 42 45 39 39 39 35 32 29 29 23 23 26 23 23 23 23
10 3 10 10 10 6 3 3 3 10 10 6 6 6 3 3 0 6 6 3 0 0 0 10 45 55 52 48 48 48 39 42 42 32 26 19 16 16 16 16 16 16 13
13 10 13 6 13 10 6 3 3 3 6 6 6 6 3 3 3 6 0 3 3 0 0 3 10 26 39 45 48 52 52 48 39 35 32 29 29 23 19 16 13 10 10
16 16 16 19 19 19 10 6 10 6 6 10 6 6 3 3 3 0 0 0 0 0 0 0 0 0 0 19 26 39 39 42 42 39 32 32 29 26 23 16 10 3 3
26 35 23 19 19 6 10 10 10 10 10 3 3 3 0 0 0 0 0 0 0 0 0 0 0 0 0 0 0 16 26 32 32 35 35 35 26 19 16 16 10 10 3
26 32 23 19 16 13 13 6 10 6 6 3 3 0 0 0 0 0 0 0 0 0 0 3 3 0 0 0 0 3 10 19 26 35 35 32 35 23 16 19 10 10 6
26 19 19 16 16 13 10 10 6 6 6 6 6 0 0 0 0 0 0 0 0 0 0 0 0 0 0 0 0 0 3 10 13 23 32 35 29 23 13 13 10 6 3
19 23 23 13 6 10 6 10 10 6 6 6 6 6 3 0 0 0 0 0 0 0 0 0 0 0 3 3 0 0 3 3 6 10 16 26 26 29 23 13 13 13 10
16 16 16 16 13 13 10 10 6 6 3 3 3 3 3 3 3 0 0 0 0 0 0 0 0 0 3 3 0 0 3 0 0 3 10 10 13 26 23 19 13 13 13
13 6 10 13 6 6 3 6 6 6 6 6 3 3 3 0 0 0 0 0 0 0 0 0 0 0 0 0 0 0 0 0 0 0 0 0 0 0 0 3 10 6 6
10 6 10 6 3 3 6 6 3 3 6 6 3 0 0 0 0 3 0 0 0 0 0 0 0 0 0 0 0 0 0 0 0 0 0 0 0 0 0 0 0 0 3
6 6 6 6 6 3 3 6 3 6 6 3 0 0 0 3 3 0 0 0 0 0 0 0 0 0 0 0 0 0 0 0 0 0 0 0 0 0 0 0 0 0 0
10 6 6 3 3 3 3 6 6 3 3 3 3 3 0 3 3 3 3 0 0 0 0 0 0 0 0 0 0 0 0 0 0 0 0 0 0 0 0 0 0 0 0
10 10 6 6 6 3 3 3 6 3 3 0 3 3 3 3 3 3 3 3 0 0 0 0 0 0 0 0 0 0 0 0 0 0 0 0 0 0 0 0 0 0 0
10 6 6 6 10 6 6 6 6 3 3 3 3 3 3 3 3 3 3 3 3 3 0 0 0 0 0 0 0 0 0 0 0 0 0 0 0 0 0 0 0 0 0
13 10 10 10 10 10 6 6 3 3 3 3 3 3 3 3 3 3 3 3 0 0 0 0 0 0 0 0 0 0 0 0 0 0 0 0 0 0 0 0 0 0 0
6 10 10 10 10 10 6 3 3 3 3 3 3 3 3 3 3 3 3 0 0 0 0 0 0 0 0 0 0 0 0 0 0 0 0 0 0 0 0 0 0 0 0
10 10 10 10 10 10 10 3 3 3 3 3 3 3 3 3 3 3 0 0 0 0 0 0 0 0 0 0 0 0 0 0 0 0 0 0 0 0 0 0 0 0 0
10 10 10 10 10 10 6 3 3 3 3 3 3 3 3 3 3 0 0 0 0 0 0 0 0 0 0 0 0 0 0 0 0 0 0 0 0 0 0 0 0 0 0
6 6 6 6 3 3 3 3 0 0 0 0 3 3 3 3 0 0 0 0 0 0 0 0 0 0 0 0 0 0 0 0 0 0 0 0 0 0 0 0 0 0 0
10 6 6 3 3 3 3 3 3 0 0 0 0 0 0 0 0 0 0 0 0 0 0 0 0 0 0 0 0 0 0 0 0 0 0 0 0 0 0 0 0 0 0
6 6 3 3 3 0 0 0 0 0 0 0 0 0 0 0 0 0 0 0 0 0 0 0 0 0 0 0 0 0 0 0 0 0 0 0 0 0 0 0 0 0 0
10 6 0 0 0 0 0 0 0 0 0 0 0 0 0 0 0 0 0 0 0 0 0 0 0 0 0 0 0 0 0 0 0 0 0 0 0 0 0 0 0 0 0

GEFSMA_con_cape1000_246.txt.gz
Probability
0 0 0 0 0 0 3 3 3 6 6 3 10 10 0 3 3 3 0 26 61 61 58 58 55 58 55 45 42 39 35 32 29 26 26 19 19 23 32 29 29 29 29
0 0 0 0 0 0 0 0 0 0 0 0 3 6 3 3 6 6 3 16 39 55 61 61 58 52 39 45 42 35 29 32 39 39 26 23 26 23 23 32 29 29 32
0 0 0 3 0 0 0 0 0 0 0 0 0 3 6 3 10 10 6 6 13 39 55 61 65 58 45 42 35 29 29 29 39 42 29 29 32 26 19 23 26 26 26
0 0 0 3 0 0 0 0 0 0 0 0 0 3 3 3 3 3 3 3 3 10 26 52 55 58 45 45 42 35 29 32 29 29 26 23 26 23 16 19 23 23 26
0 0 3 6 0 0 0 0 0 0 0 3 3 3 3 3 6 3 0 0 0 3 3 13 35 48 45 45 39 32 32 35 35 29 23 26 26 26 23 19 19 16 19
0 0 3 3 0 0 0 0 0 0 0 3 3 6 6 6 3 3 3 0 0 3 0 0 3 16 19 39 39 39 32 35 35 29 29 29 26 23 19 13 13 13 10
6 0 3 3 0 0 0 0 0 0 6 6 3 3 3 0 0 0 0 0 3 3 3 0 3 3 3 6 13 19 23 26 26 32 32 26 23 23 16 16 10 10 6
6 10 3 0 0 0 3 0 0 3 3 3 3 3 3 0 0 3 0 0 0 0 0 0 0 0 0 3 3 6 16 19 23 26 23 26 16 16 6 10 6 0 0
13 10 10 10 3 3 6 3 0 0 3 3 3 3 3 3 3 3 0 0 0 0 0 0 0 0 0 0 0 0 6 10 19 23 23 29 29 10 13 13 3 3 0
13 16 16 10 6 3 3 3 6 3 3 3 3 3 3 3 3 3 0 0 0 0 0 0 0 0 0 0 0 0 0 0 6 10 13 16 19 19 6 6 10 10 6
10 13 6 6 10 6 6 3 3 3 3 3 3 3 3 3 3 0 0 0 0 0 0 0 0 0 0 0 0 0 0 0 0 3 6 10 23 29 26 23 19 16 10
6 6 6 6 6 3 3 3 3 3 3 3 3 3 3 3 0 0 0 0 0 0 0 0 0 0 0 0 0 0 0 0 0 0 0 0 3 13 16 16 19 13 10
3 6 6 3 3 3 3 3 3 3 3 3 3 3 0 0 0 0 0 0 0 0 0 0 0 0 0 0 0 0 0 0 0 0 0 0 0 0 3 3 6 3 3
3 6 3 3 3 3 3 3 3 3 3 0 0 0 0 0 0 0 0 0 0 0 0 0 0 0 0 0 0 0 0 0 0 0 0 0 0 0 0 0 0 0 0
3 6 3 3 3 3 3 3 3 3 0 0 0 0 0 0 0 0 0 0 0 3 3 0 0 0 0 0 0 0 0 0 0 0 0 0 0 0 0 0 0 0 0
3 6 3 3 3 3 3 3 3 0 0 0 0 0 0 0 0 3 3 0 0 0 3 3 0 0 0 0 0 0 0 0 0 0 0 0 0 0 0 0 0 0 0
6 6 3 3 3 3 3 3 3 0 0 0 0 0 3 3 3 3 3 3 0 0 0 0 0 0 0 0 0 0 0 0 0 0 0 0 0 0 0 0 0 0 0
10 6 6 6 6 3 3 3 3 0 0 3 3 3 3 3 3 3 3 3 3 0 0 0 0 0 0 0 0 0 0 0 0 0 0 0 0 0 0 0 0 0 0
6 6 6 6 6 6 6 6 0 0 3 3 3 3 3 3 3 3 3 3 0 0 0 0 0 0 0 0 0 0 0 0 0 0 0 0 0 0 0 0 0 0 0
6 6 6 6 6 10 10 6 3 3 3 3 3 3 3 3 3 3 3 3 0 0 0 0 0 0 0 0 0 0 0 0 0 0 0 0 0 0 0 0 0 0 0
6 6 6 6 3 6 3 0 0 3 3 3 3 3 3 0 0 0 0 0 0 0 0 0 0 0 0 0 0 0 0 0 0 0 0 0 0 0 0 0 0 0 0
3 3 3 3 3 3 0 0 0 3 3 3 0 0 0 0 0 0 0 0 0 0 0 0 0 0 0 0 0 0 0 0 0 0 0 0 0 0 0 0 0 0 0
6 3 3 3 3 3 0 0 0 0 0 0 0 0 0 0 0 0 0 0 0 0 0 0 0 0 0 0 0 0 0 0 0 3 0 0 0 0 0 0 0 0 0
6 6 3 3 3 3 0 0 0 0 0 0 0 0 0 0 0 0 0 0 0 0 0 0 0 0 0 0 0 0 0 0 0 0 0 0 0 0 0 0 0 0 0
10 6 6 3 3 0 0 0 0 0 0 0 0 0 0 0 0 0 0 0 0 0 0 0 0 0 0 0 0 0 0 0 0 0 0 0 0 0 0 0 0 0 0
6 6 3 3 0 0 0 0 0 0 0 0 0 0 0 0 0 0 0 0 0 0 0 0 0 0 0 0 0 0 0 0 0 0 0 0 0 0 0 0 0 0 0

GEFSMA_con_cape1000_252.txt.gz
Probability
71 61 77 77 48 52 45 55 48 42 26 29 26 26 32 26 26 39 52 48 52 48 42 45 48 48 48 42 35 32 29 32 23 23 16 19 23 19 23 29 32 35 29
71 68 65 61 39 42 48 52 42 45 35 42 32 23 32 29 48 55 35 39 45 45 52 48 45 42 45 48 42 39 29 35 19 23 16 16 23 19 16 23 26 29 26
68 65 52 58 48 52 55 48 42 42 48 45 42 35 26 35 39 42 42 45 45 48 52 42 39 45 48 48 39 42 39 35 39 29 26 26 26 23 23 19 19 23 26
68 74 65 55 55 52 52 55 52 45 48 52 48 26 26 39 39 39 32 45 39 29 35 48 42 52 42 39 39 35 42 35 39 26 26 29 29 19 26 29 29 26 23
65 68 74 74 58 52 45 48 48 39 35 45 39 45 32 32 35 19 26 29 39 39 45 39 42 35 26 32 35 26 32 32 35 39 29 19 13 26 23 19 26 26 26
55 61 61 65 52 58 58 65 65 71 55 48 23 19 26 29 29 32 29 29 32 32 35 35 32 32 26 26 26 35 32 29 32 32 29 23 23 23 19 6 16 19 19
65 71 52 71 71 61 65 65 61 52 39 45 35 32 26 19 16 29 23 29 32 29 26 39 35 35 23 10 13 23 16 19 26 19 29 26 19 16 13 3 6 10 10
71 45 71 58 65 71 74 71 77 52 45 39 29 23 19 16 19 13 19 16 16 16 16 10 29 35 26 29 16 10 16 19 16 16 19 16 23 23 23 13 3 0 0
65 65 65 52 55 55 65 74 71 58 42 45 29 23 23 10 19 10 13 10 13 19 19 16 19 26 26 29 29 10 13 16 16 16 13 23 16 10 16 16 10 6 3
65 58 71 61 55 52 58 45 52 52 45 39 32 32 26 23 13 10 6 10 10 13 16 6 6 13 19 23 26 10 10 6 6 10 13 16 26 16 16 10 13 13 10
68 61 65 61 65 52 58 45 42 45 35 39 35 29 26 26 13 13 16 16 16 13 13 19 13 13 13 13 16 13 3 0 0 0 0 3 16 13 10 16 16 19 23
68 61 61 58 52 52 48 45 45 42 48 45 32 32 23 23 16 16 13 16 13 16 19 19 19 16 16 13 13 6 3 0 0 0 0 3 0 3 10 13 13 10 13
61 74 48 52 48 48 42 39 39 42 42 45 42 23 19 19 19 16 19 13 13 13 16 13 13 10 6 6 6 3 3 0 0 0 0 0 0 3 3 3 10 10 6
65 68 68 52 52 39 35 42 32 29 35 39 16 29 29 16 13 16 16 13 10 13 13 6 13 13 6 6 3 3 6 0 0 0 0 0 0 0 0 0 6 6 6
68 65 61 52 45 42 42 35 35 32 35 29 26 19 23 26 19 13 16 13 6 3 3 3 6 6 3 6 6 6 6 3 0 0 0 0 0 0 0 0 0 0 3
65 61 52 48 42 42 29 29 23 29 29 29 26 26 26 16 23 16 19 23 13 13 3 10 10 6 3 3 3 6 6 3 0 0 0 0 0 0 0 0 0 0 0
55 55 52 52 45 42 39 32 19 19 16 16 13 13 16 16 19 16 16 13 13 16 13 6 10 6 6 6 6 6 6 6 3 0 0 0 0 0 0 0 0 0 0
52 48 48 48 42 39 35 32 19 19 19 19 16 13 10 13 19 16 19 16 19 16 10 13 10 6 10 6 6 6 6 3 3 0 0 0 0 0 0 0 0 0 0
52 48 48 48 39 39 29 19 13 16 23 23 19 13 10 13 16 13 13 13 16 13 13 13 13 6 3 3 3 6 3 3 3 0 0 0 0 0 0 0 0 0 0
48 48 48 45 35 32 32 26 10 16 19 19 13 10 6 6 10 10 10 13 10 13 13 10 10 10 6 3 3 3 10 6 3 3 0 0 0 0 0 0 0 0 0
45 48 45 42 39 32 32 26 13 10 13 6 10 10 3 3 3 3 3 6 13 6 10 6 3 0 0 3 3 3 3 6 6 3 3 3 3 3 0 0 0 0 0
45 45 42 39 35 23 6 3 3 10 10 6 10 10 10 3 0 0 0 0 0 0 6 6 0 0 0 0 0 0 0 0 0 3 3 3 3 3 3 3 0 0 0
48 45 42 39 39 23 6 3 3 3 10 6 10 10 6 6 0 0 0 0 0 0 0 3 3 0 0 3 0 0 0 3 0 0 0 0 3 3 3 0 0 0 0
55 52 45 39 39 19 0 0 0 6 10 6 3 10 10 6 3 0 0 0 0 0 0 0 3 3 0 0 3 3 0 0 0 0 0 0 0 0 3 3 0 0 0
55 48 48 48 39 19 3 0 0 6 6 6 6 3 3 6 3 0 0 0 0 0 0 0 0 0 0 0 0 0 0 0 0 0 0 3 0 0 3 3 3 0 0
52 45 45 42 35 29 6 0 0 6 3 3 6 3 0 0 3 0 0 0 0 3 0 0 0 0 0 0 0 0 0 0 0 0 0 0 0 0 0 3 3 3 0

GEFSMA_con_cape1000_258.txt.gz
Probability
84 77 74 77 71 68 65 77 71 58 58 48 35 29 32 39 26 39 35 55 55 55 52 39 39 45 45 48 48 39 32 29 26 23 19 19 19 23 29 19 29 29 32
84 81 81 81 65 71 74 77 68 65 52 48 45 45 39 35 48 48 39 42 58 58 52 45 42 48 55 52 45 42 35 26 29 32 26 19 19 19 16 23 32 39 32
71 84 77 77 84 84 81 71 68 68 61 61 61 45 42 55 52 52 48 39 35 48 45 45 48 48 52 48 48 42 42 35 32 35 29 29 23 23 29 29 32 35 32
74 84 87 90 94 90 84 81 74 71 65 58 61 55 52 52 48 42 45 42 32 23 39 48 45 45 45 48 42 35 39 32 42 32 29 19 19 16 19 19 26 26 26
84 90 94 94 87 84 90 61 71 71 68 55 52 42 48 52 48 39 45 35 35 39 23 35 45 52 39 35 42 39 35 29 32 29 26 23 23 16 16 16 19 19 19
87 90 87 87 90 87 87 87 84 84 77 68 23 26 42 39 35 39 39 39 45 35 39 32 35 29 35 39 39 42 39 32 26 29 19 16 19 23 16 16 6 13 10
87 94 90 90 90 87 84 77 77 74 71 58 48 45 42 32 29 45 42 39 39 39 39 42 35 35 23 32 29 23 26 23 19 19 19 19 23 19 16 13 3 3 3
90 77 94 94 87 87 87 87 84 84 71 58 58 45 42 39 32 23 42 35 29 39 26 26 35 32 23 19 10 23 26 26 23 23 23 26 26 19 10 10 6 3 3
81 84 87 84 84 87 87 87 87 81 77 68 58 45 29 29 29 29 32 32 32 32 26 29 23 19 19 19 13 3 19 19 16 19 19 23 23 23 13 10 13 10 6
81 81 84 77 81 87 84 77 81 81 81 81 71 58 42 32 23 23 26 29 32 32 29 13 16 19 19 19 19 10 13 13 16 19 19 19 23 23 10 10 10 10 10
77 77 84 81 81 81 81 74 77 77 74 74 71 61 35 42 29 29 19 19 26 26 23 23 19 19 19 16 16 10 3 6 6 13 13 16 19 16 16 19 13 10 10
84 81 81 84 81 77 71 68 68 65 74 71 74 65 58 42 39 35 23 26 19 23 19 13 16 19 19 13 10 10 6 3 0 3 6 10 10 10 19 10 13 10 6
74 81 74 81 74 68 68 68 68 65 61 68 68 74 55 52 42 35 35 23 26 26 16 10 10 10 6 13 10 10 6 6 0 0 0 0 0 3 3 3 6 6 10
74 74 77 71 61 52 48 61 65 58 52 48 45 55 58 48 39 35 29 29 16 19 13 3 6 16 13 13 3 0 3 0 0 0 0 0 0 0 0 0 3 3 3
71 68 58 65 58 55 52 55 58 55 52 52 45 48 52 48 39 39 32 26 23 16 10 10 10 10 6 6 0 3 3 3 0 0 0 0 0 0 0 0 0 0 0
61 58 58 55 55 58 52 52 58 48 45 48 52 45 42 35 39 39 35 29 32 19 6 10 3 13 10 3 0 6 3 0 0 0 0 0 0 0 0 0 0 0 0
58 55 52 48 55 58 58 52 45 35 42 42 39 32 29 39 32 39 32 35 26 16 13 6 10 10 10 3 0 3 3 3 0 0 0 0 0 0 0 0 0 0 0
65 58 55 48 45 48 48 42 35 35 29 32 35 32 19 16 16 35 29 29 23 16 10 3 6 10 6 6 6 10 3 3 3 3 0 0 0 0 0 0 0 0 0
65 65 58 52 48 45 45 42 39 39 32 29 32 23 19 19 19 23 23 23 19 6 16 6 6 6 3 3 3 0 3 0 0 0 0 0 0 0 0 0 0 0 0
68 65 61 58 48 48 42 39 35 35 35 29 32 23 19 10 19 23 16 19 16 16 13 10 6 3 6 0 0 0 0 0 0 0 0 0 0 0 0 0 0 0 0
61 65 61 58 52 45 42 42 32 29 32 32 32 26 13 10 10 10 13 19 13 16 10 10 0 0 0 0 0 0 0 0 0 0 0 0 0 0 0 0 0 0 0
61 65 61 55 52 32 19 19 23 32 39 39 35 29 10 10 10 3 0 0 0 6 3 6 0 0 0 0 0 0 0 0 0 0 0 0 0 0 0 0 0 0 0
61 58 58 52 52 26 19 16 13 32 35 35 35 29 13 6 6 6 3 0 0 0 0 0 10 6 3 3 0 0 0 0 0 0 3 0 0 0 0 0 0 0 0
61 61 58 55 48 26 10 10 3 16 29 35 29 26 13 6 10 10 10 3 3 3 0 3 6 10 6 6 3 3 3 3 3 3 0 0 0 0 0 0 0 0 0
65 61 61 52 48 26 10 6 0 19 19 29 19 19 13 6 6 0 10 6 6 6 0 0 0 0 0 0 0 0 0 0 0 0 0 0 0 0 0 0 0 0 0
65 58 55 48 45 32 10 6 0 13 16 19 23 19 3 0 0 0 3 10 6 6 6 3 0 0 0 0 0 0 0 0 0 0 0 0 0 0 0 0 0 0 0

GEFSMA_con_cape1000_264.txt.gz
Probability
0 0 3 0 6 13 6 10 3 3 6 6 10 10 3 3 0 0 6 52 58 58 55 45 48 45 45 45 45 42 42 35 39 32 29 26 26 26 23 19 32 26 32
3 3 0 0 0 6 10 6 6 6 6 6 10 6 6 3 10 6 13 29 48 58 58 52 52 52 48 48 48 52 48 45 39 39 32 26 19 23 29 29 26 35 29
10 10 13 3 6 6 6 3 6 6 6 6 6 6 6 6 3 3 6 10 26 42 52 55 52 45 45 45 48 48 58 52 45 45 29 29 29 23 35 29 26 39 35
10 13 16 6 6 10 10 10 6 10 10 10 10 3 3 3 3 3 6 3 6 13 29 45 48 45 35 42 39 35 48 45 42 39 29 26 26 23 19 23 29 32 32
19 10 6 6 10 6 10 13 10 10 6 3 6 3 0 0 3 6 6 6 0 3 3 19 45 42 29 32 35 39 39 45 32 29 35 29 23 26 19 13 13 16 13
16 6 3 3 6 13 13 10 13 10 3 3 3 3 0 3 0 3 3 0 0 3 3 0 6 16 32 29 32 35 32 35 35 32 23 23 13 10 16 10 10 6 6
6 6 6 6 6 10 16 16 13 13 10 6 3 0 0 0 0 0 0 0 0 0 0 3 3 3 6 23 23 29 23 32 32 26 23 23 16 10 13 10 10 6 3
10 16 6 13 10 6 10 13 13 13 6 6 3 0 0 0 0 0 0 0 0 0 0 0 0 0 0 0 0 16 26 29 26 32 23 13 16 13 13 6 10 3 3
16 13 16 13 6 6 10 10 10 10 6 3 0 0 0 0 0 0 0 0 0 0 0 0 0 0 0 0 0 0 19 23 19 23 23 16 13 10 10 10 13 10 6
32 29 23 16 13 10 13 10 6 10 3 3 0 0 0 0 0 0 0 0 0 0 0 0 0 0 0 0 0 0 6 13 19 19 23 19 16 6 3 10 10 10 13
23 19 19 10 10 10 10 10 6 3 10 10 3 0 0 0 0 0 0 0 0 0 0 0 0 0 0 0 0 0 0 0 6 10 16 16 19 16 6 10 10 10 16
23 29 26 16 16 13 13 13 3 3 3 6 0 0 0 3 0 0 0 0 0 0 0 0 0 0 0 0 0 0 3 0 0 0 6 10 16 16 6 6 3 16 16
29 26 23 16 16 19 16 10 6 6 6 3 0 0 0 0 0 0 0 0 0 0 0 0 0 0 0 0 0 0 0 0 0 0 0 3 10 10 10 3 6 10 10
26 29 23 16 16 26 19 13 13 6 6 3 6 0 0 0 0 0 0 0 0 0 0 0 0 0 0 0 0 0 0 0 0 0 0 0 0 0 0 0 0 0 0
29 29 26 16 19 16 13 13 10 6 6 6 6 3 0 0 0 0 0 0 0 0 0 0 0 0 0 0 0 0 0 0 0 0 0 0 0 0 0 0 0 0 0
35 35 39 19 19 16 13 13 13 10 6 6 6 6 3 3 0 0 0 0 0 0 0 0 0 0 0 0 0 0 0 0 0 0 0 0 0 0 0 0 0 0 0
35 35 35 23 19 16 13 13 13 13 6 6 6 6 6 3 0 0 0 0 0 0 0 0 0 0 0 0 0 0 0 0 0 0 0 0 0 0 0 0 0 0 0
35 35 32 32 32 32 23 16 13 13 10 10 6 6 6 6 3 3 0 0 0 0 0 0 0 0 0 0 0 0 0 0 0 0 0 0 0 0 0 0 0 0 0
35 32 32 32 32 32 29 23 19 16 13 10 10 6 3 6 3 0 0 0 0 0 0 0 0 0 0 0 0 0 0 0 0 0 0 0 0 0 0 0 0 0 0
35 35 32 32 32 32 26 19 19 19 13 10 13 6 6 3 3 0 0 0 0 0 0 0 0 0 0 0 0 0 0 0 0 0 0 0 0 0 0 0 0 0 0
42 35 32 32 26 26 19 23 26 19 16 16 13 6 6 6 6 3 3 3 0 0 0 0 0 0 0 0 0 0 0 0 0 0 0 0 0 0 0 0 0 0 0
45 35 35 29 23 23 19 19 19 19 23 16 13 10 10 6 6 3 0 0 0 0 0 0 0 0 0 0 0 0 0 0 0 0 0 0 0 0 0 0 0 0 0
39 35 32 29 23 16 16 16 13 16 16 13 10 13 10 10 6 0 0 0 0 0 0 0 0 0 0 0 0 0 0 0 0 0 0 0 0 0 0 0 0 0 0
35 29 29 29 19 16 16 10 6 16 16 10 10 10 6 6 6 3 0 0 0 0 0 0 0 0 0 0 0 0 0 0 0 0 0 0 0 0 0 0 0 0 0
39 29 26 23 23 19 16 6 6 16 16 10 10 6 6 3 3 0 0 0 0 0 0 0 0 0 0 0 0 0 0 0 0 0 0 0 0 0 0 0 0 0 0
35 23 26 23 23 16 16 6 6 16 13 13 6 6 3 3 3 0 0 0 0 0 0 0 0 0 0 0 0 0 0 0 0 0 0 0 0 0 0 0 0 0 0

GEFSMA_con_cape1000_270.txt.gz
Probability
0 0 0 0 3 3 3 3 6 3 6 10 10 10 6 10 6 3 6 29 42 52 45 45 45 52 45 45 35 39 42 42 35 32 39 26 26 19 23 23 23 32 32
0 0 0 0 0 0 0 6 3 3 3 10 6 6 10 13 16 13 16 19 35 52 39 39 39 39 39 35 39 32 23 35 42 42 32 32 42 32 23 23 19 26 32
0 0 0 0 0 0 0 0 3 3 3 6 6 6 6 10 13 10 13 10 16 35 35 42 42 42 42 32 32 39 39 29 32 45 39 39 39 45 26 23 26 29 39
0 0 3 3 3 0 3 3 3 0 3 3 3 3 3 3 0 6 3 3 3 10 19 32 39 39 35 35 39 42 32 29 32 39 29 26 32 29 26 29 29 32 32
3 0 0 3 0 6 3 6 6 3 3 3 3 3 0 0 0 0 0 3 3 3 10 13 23 32 29 29 29 39 45 39 35 42 32 29 32 26 23 23 26 23 29
3 3 0 3 3 3 10 10 3 3 3 3 3 0 0 0 0 0 0 3 6 6 6 6 10 16 23 32 32 29 32 26 32 39 35 26 32 29 23 16 16 23 19
3 3 6 3 6 6 6 6 10 3 3 3 0 0 0 0 0 0 0 0 0 0 6 6 6 10 6 10 16 23 29 26 26 23 29 19 13 23 13 13 16 13 10
3 3 3 3 6 6 6 6 3 0 3 0 0 0 0 0 0 0 0 0 0 0 0 0 0 3 3 3 3 10 13 10 23 19 23 16 13 10 10 6 10 10 6
3 0 3 6 6 6 6 3 0 0 0 0 0 0 0 0 0 0 0 0 0 0 0 0 3 0 0 0 0 0 6 10 16 16 16 16 13 6 3 6 10 6 6
6 10 6 6 6 6 6 6 3 0 0 0 0 0 0 0 0 0 0 0 0 0 0 0 0 0 0 0 0 0 0 3 6 13 19 16 13 10 6 6 6 10 10
6 13 6 10 10 6 6 6 3 3 0 0 0 0 0 0 0 0 0 0 0 0 0 0 0 0 0 0 0 0 0 0 0 6 13 16 13 13 6 6 6 10 10
0 10 16 13 10 13 6 6 3 3 3 0 0 0 0 0 0 0 0 0 0 0 0 0 0 0 0 0 0 0 0 0 0 0 3 6 13 13 13 10 6 6 6
3 6 16 10 6 13 13 10 3 3 3 3 0 0 0 0 0 0 0 0 0 0 0 0 0 0 0 0 0 0 0 0 0 0 0 3 3 10 10 6 6 13 6
6 10 16 10 10 13 10 10 6 3 3 3 3 0 0 0 0 0 0 0 0 0 0 0 0 0 0 0 0 0 0 0 0 0 0 0 0 3 3 3 3 0 0
10 16 16 10 10 10 10 10 6 6 6 3 3 3 3 0 0 0 0 0 0 0 0 0 0 0 0 0 0 0 0 0 0 0 0 0 0 0 0 0 0 0 0
16 13 19 23 13 13 13 10 10 10 10 10 10 6 6 6 3 0 0 0 0 0 0 0 0 0 0 0 0 0 0 0 0 0 0 0 0 0 0 0 0 0 0
13 16 19 23 19 16 13 13 13 6 10 10 10 6 6 6 6 3 0 0 0 0 0 0 0 0 0 0 0 0 0 0 0 0 0 0 0 0 0 0 0 0 0
19 23 23 26 23 23 16 13 13 13 10 10 10 10 6 6 6 6 0 0 0 0 0 0 0 0 0 0 0 0 0 0 0 0 0 0 0 0 0 0 0 0 0
23 23 23 32 32 29 23 16 13 13 13 6 6 6 6 3 3 3 3 0 0 0 0 0 0 0 0 0 0 0 0 0 0 0 0 0 0 0 0 0 0 0 0
26 26 23 29 32 32 29 19 16 16 16 16 13 6 6 3 3 3 3 3 0 0 0 0 0 0 0 0 0 0 0 0 0 0 0 0 0 0 0 0 0 0 0
23 23 19 23 29 29 29 23 19 19 19 19 16 16 16 13 3 3 3 3 3 0 0 0 0 0 0 0 0 0 0 0 0 0 0 0 0 0 0 0 0 0 0
26 23 19 23 29 26 16 16 16 19 19 19 16 16 16 13 10 3 3 3 3 3 0 0 3 0 0 0 0 0 0 0 0 0 0 0 0 0 0 0 0 0 0
26 26 23 23 23 19 6 13 13 16 19 19 16 13 13 13 6 6 3 3 3 0 0 6 6 3 0 0 0 0 0 0 0 0 0 0 0 0 0 0 0 0 0
26 26 23 16 19 13 3 6 6 10 13 13 13 13 10 10 3 3 3 3 3 3 3 0 3 3 0 0 0 0 0 0 0 0 0 0 0 0 0 0 0 0 0
26 26 16 10 13 13 6 3 0 10 13 13 13 13 10 6 3 3 3 3 3 3 3 0 0 0 0 0 0 0 0 0 0 0 0 0 0 0 0 0 0 0 0
23 16 13 10 13 13 13 6 3 6 13 13 13 10 6 6 3 3 3 3 3 3 3 3 0 0 0 0 0 0 0 0 0 0 0 0 0 0 0 0 0 0 0

GEFSMA_con_cape1000_276.txt.gz
Probability
52 45 65 61 55 58 48 52 45 29 32 23 19 19 19 23 26 26 35 35 42 42 42 35 35 32 29 35 35 32 35 35 39 39 35 32 32 32 39 32 26 26 35
58 52 55 58 55 55 48 52 39 35 35 26 23 16 23 23 32 32 29 32 42 42 45 39 35 35 35 39 35 32 35 32 32 35 32 32 39 42 39 32 26 23 23
68 65 48 58 52 58 61 55 42 39 42 45 35 29 35 32 26 39 39 35 35 35 35 39 45 42 39 42 42 39 35 35 39 35 35 39 39 32 29 35 29 32 26
68 65 55 48 71 61 58 61 52 42 42 39 45 39 35 58 35 42 32 32 35 32 35 29 35 35 32 39 42 42 39 39 39 32 32 32 29 32 32 26 26 29 32
71 58 68 71 61 58 55 48 55 52 52 55 32 39 39 35 39 26 19 26 35 39 29 32 29 29 29 32 39 39 39 35 35 26 19 23 23 26 19 23 23 29 26
71 55 61 74 52 61 58 61 58 68 61 58 10 16 23 26 19 23 16 29 39 26 19 23 32 26 19 29 29 32 35 35 32 29 26 26 26 26 19 23 23 19 16
61 71 48 71 55 52 58 48 58 48 35 42 29 19 23 13 10 19 29 29 29 19 23 26 32 26 26 19 16 23 26 26 26 16 19 16 16 19 13 13 13 13 10
58 39 68 58 61 68 55 58 61 48 23 29 23 23 26 26 19 3 23 26 23 19 16 16 16 19 16 19 6 13 13 16 16 19 16 13 16 16 6 13 6 3 6
48 71 65 61 65 39 52 58 55 48 39 23 26 29 23 10 10 16 19 26 23 19 13 16 6 13 13 19 16 3 13 10 10 16 16 19 23 16 10 6 10 6 6
52 55 58 61 65 55 55 39 52 42 48 32 29 29 16 19 10 10 16 19 16 16 13 6 3 6 6 10 6 6 3 3 6 6 13 13 16 10 6 6 6 6 6
52 55 55 68 68 65 58 58 48 45 45 42 32 19 23 23 16 19 10 3 3 10 10 10 3 3 3 6 10 6 3 0 0 3 10 13 13 10 6 6 6 6 3
48 52 55 65 74 65 58 58 52 45 48 45 39 26 10 10 16 13 10 13 3 0 10 6 10 6 3 3 3 3 3 0 0 0 0 6 10 13 10 6 3 6 6
52 58 58 68 68 68 65 58 52 52 45 45 42 35 19 19 16 13 10 13 6 6 10 6 6 6 3 6 3 3 3 0 0 0 0 0 0 3 10 10 10 6 3
52 58 68 65 65 58 45 55 42 48 42 42 29 35 32 29 19 19 16 13 13 10 6 13 6 3 6 6 3 3 3 0 0 0 0 0 0 0 0 0 3 6 3
48 52 61 58 58 55 52 52 48 45 45 42 35 39 39 26 19 16 19 19 19 16 16 16 13 10 10 10 6 6 10 3 0 0 0 0 0 0 0 0 0 0 0
61 58 61 58 55 52 52 48 45 45 42 45 45 42 39 19 29 23 26 29 26 29 23 23 23 13 10 6 6 6 10 3 0 0 0 0 0 0 0 0 0 0 0
61 61 58 52 55 52 52 52 42 45 39 39 39 32 32 32 23 23 23 29 29 26 26 23 23 16 19 13 10 10 6 6 6 0 0 0 0 0 0 0 0 0 0
58 61 65 58 48 48 48 45 42 39 39 39 42 35 35 32 32 26 26 26 26 26 23 23 23 16 13 16 16 13 3 3 6 0 0 0 0 0 0 0 0 0 0
58 61 65 55 48 48 52 52 48 48 42 39 39 35 32 35 42 32 32 26 26 23 19 23 19 16 10 13 10 10 10 10 3 3 0 0 0 0 0 0 0 0 0
58 58 61 55 52 52 52 52 48 48 45 45 42 42 32 39 35 39 35 39 26 26 26 23 16 10 10 10 10 10 10 10 3 0 0 0 0 0 0 0 0 0 0
55 58 61 58 58 52 48 48 45 45 48 45 45 39 32 32 23 26 19 23 26 23 23 19 13 16 6 6 3 10 13 10 10 3 6 0 0 0 0 0 0 0 0
65 65 65 61 58 48 29 23 35 45 45 45 42 39 32 23 16 13 13 10 13 23 26 23 19 13 19 10 10 13 13 13 10 10 6 0 0 3 3 0 0 0 0
58 61 58 58 61 55 19 10 16 39 45 42 42 39 26 19 19 19 10 3 3 0 0 29 23 16 16 13 16 13 10 13 16 3 3 3 3 6 3 0 0 0 0
52 55 52 52 58 55 13 6 0 26 39 39 39 35 35 29 23 26 23 26 23 13 6 10 23 26 16 19 19 13 16 13 10 10 3 0 0 0 0 0 0 0 0
61 58 48 48 52 48 13 3 0 35 35 35 32 26 26 26 13 10 19 26 26 26 3 3 3 3 3 3 3 3 10 6 3 3 10 0 0 6 3 6 3 0 0
58 52 45 42 45 48 16 3 0 32 35 35 35 26 13 16 6 3 16 26 29 26 16 6 3 3 3 3 3 3 6 3 6 3 3 0 3 6 3 3 3 0 0

GEFSMA_con_cape1000_282.txt.gz
Probability
71 74 74 74 65 68 68 68 68 45 39 29 23 26 35 35 29 19 26 55 48 52 48 39 35 35 39 42 42 39 48 42 45 48 39 35 32 39 39 39 32 39 39
74 81 77 71 68 65 68 74 58 52 45 42 32 39 48 48 55 55 42 45 55 48 45 45 42 39 35 39 39 45 39 42 48 48 42 42 42 42 35 32 35 32 35
74 71 65 71 68 65 65 74 65 61 55 45 55 52 55 55 45 58 45 48 39 39 39 42 39 42 35 39 42 45 39 35 35 39 39 39 42 32 32 29 29 23 23
74 68 68 71 74 71 74 74 65 58 65 68 68 65 65 68 52 48 39 35 35 29 29 35 35 35 42 39 42 45 42 39 32 35 32 32 29 26 19 23 26 26 19
71 74 71 74 71 77 77 74 81 74 68 71 61 65 65 55 58 26 32 32 39 39 29 23 35 35 32 35 39 42 39 35 29 29 29 23 29 23 23 16 16 23 23
74 81 71 77 77 74 74 77 77 77 71 61 42 42 52 45 52 45 39 32 29 29 26 26 26 16 16 16 19 26 32 32 29 23 23 23 23 23 23 19 10 10 16
74 71 71 77 81 77 81 77 81 65 71 68 55 52 52 45 48 45 42 32 32 26 19 26 23 26 16 16 13 16 19 23 26 26 29 32 26 26 26 19 13 6 6
77 58 84 77 74 84 68 68 74 65 58 58 61 55 52 48 42 23 39 32 23 26 23 16 26 13 13 10 3 6 13 19 23 29 26 13 19 16 16 16 13 6 6
74 71 74 74 77 74 77 68 74 65 65 65 65 58 45 42 39 39 29 32 26 23 16 16 13 16 16 13 6 6 13 13 10 10 16 13 13 13 10 10 3 3 3
68 68 71 74 84 71 81 68 68 68 65 61 52 52 48 42 45 23 35 26 19 19 16 13 10 6 16 13 10 6 0 3 10 10 16 13 10 10 3 3 6 3 10
65 65 74 77 77 74 71 68 71 68 68 55 58 58 48 52 42 32 29 23 19 16 19 23 13 10 13 6 10 6 3 0 0 6 10 13 13 16 6 6 10 6 6
74 58 65 71 74 71 71 71 65 65 65 58 61 58 52 42 26 29 32 32 29 26 23 19 19 19 13 10 3 3 6 0 0 0 3 6 16 13 10 6 10 13 10
68 68 65 71 71 68 71 68 68 65 61 58 58 58 52 52 35 42 42 32 32 29 26 26 23 23 13 13 10 3 3 3 0 0 0 0 10 10 10 6 6 10 13
65 65 71 71 68 65 68 68 71 71 68 61 58 52 55 52 42 42 42 35 32 29 29 19 19 16 13 13 10 6 6 6 0 0 0 0 0 0 3 6 3 3 6
65 65 68 68 71 65 68 71 68 68 71 68 65 55 58 48 45 48 32 42 39 29 32 26 19 19 16 16 10 10 10 10 0 0 0 0 0 0 0 0 0 0 0
68 61 68 74 68 65 68 68 65 65 61 58 58 55 55 52 48 55 48 39 42 42 35 29 29 16 16 6 10 6 6 6 0 0 0 0 0 0 0 0 0 0 0
65 68 71 71 65 61 61 65 68 61 58 61 58 45 45 45 48 48 48 48 39 35 32 35 29 26 16 13 10 10 10 6 6 0 0 0 0 0 0 0 0 0 0
68 68 71 68 68 65 61 61 58 58 61 58 55 48 42 45 55 55 52 52 52 52 42 32 26 23 16 13 10 13 6 6 6 3 0 0 0 0 0 0 0 0 0
65 68 71 65 65 61 65 61 65 65 61 61 58 52 48 48 58 55 58 55 52 29 45 35 39 32 13 6 6 6 6 10 6 3 0 0 0 0 0 0 0 0 0
68 65 68 71 68 68 68 61 58 65 65 61 61 55 55 48 48 55 52 52 52 48 48 42 32 29 23 10 6 10 6 10 6 6 3 0 0 0 0 0 0 0 0
58 61 68 68 68 68 58 55 55 52 61 55 52 52 48 39 35 29 26 35 35 45 42 35 29 26 23 13 6 10 3 10 6 6 6 0 0 0 0 0 0 0 0
65 61 65 65 58 52 42 35 35 48 52 52 52 52 45 32 16 10 13 13 13 23 29 32 32 23 23 23 13 6 3 6 6 13 13 0 0 0 0 0 0 0 0
61 61 58 55 58 42 35 26 23 35 42 45 45 45 39 26 19 16 10 10 10 3 6 13 16 23 23 26 19 13 10 6 3 10 10 6 6 3 0 0 0 0 0
61 61 58 55 55 45 26 13 19 29 35 42 45 52 48 42 32 32 29 23 16 10 3 3 10 16 16 19 23 13 19 6 10 10 10 6 3 3 0 0 0 0 0
61 58 58 58 55 45 23 10 10 26 35 42 39 39 39 39 29 13 26 35 35 32 10 0 6 6 6 6 6 6 6 6 10 6 6 6 6 3 6 3 0 0 0
55 52 52 55 55 48 23 13 6 23 35 39 39 42 26 23 23 10 19 29 29 32 23 10 0 0 6 3 0 3 6 0 0 0 6 6 6 6 6 6 0 3 0

GEFSMA_con_cape1000_288.txt.gz
Probability
0 0 0 0 0 3 3 0 0 0 0 3 6 6 3 0 0 3 3 32 42 45 52 52 45 52 58 45 48 45 48 42 39 55 39 32 35 52 42 45 45 48 52
3 3 3 3 3 3 3 0 0 0 0 3 3 3 3 3 3 3 3 13 45 52 52 45 42 39 42 45 45 48 48 45 45 45 48 39 42 48 45 48 45 48 52
0 0 0 0 3 0 0 3 3 3 3 3 3 0 0 3 3 3 3 6 19 45 48 45 45 39 39 42 39 42 45 48 48 48 42 45 42 52 45 39 39 39 42
3 0 3 6 3 3 3 3 6 3 6 3 0 0 0 6 3 3 3 3 0 3 26 35 32 32 29 26 29 32 32 35 42 39 39 32 35 26 26 39 26 26 32
3 3 6 3 10 13 10 6 6 6 6 6 6 3 3 3 6 6 10 3 3 3 0 13 26 23 26 19 23 26 29 26 32 29 23 16 16 19 19 19 16 26 23
13 10 6 10 13 16 13 6 6 3 6 6 3 3 3 0 3 3 6 6 3 6 3 0 6 16 23 23 26 26 23 23 26 29 29 26 26 26 19 19 16 13 13
10 6 13 13 13 13 6 10 6 3 3 3 3 3 0 3 3 3 3 3 3 6 0 0 0 0 6 16 19 23 16 16 19 26 29 29 26 26 23 16 19 13 10
13 23 16 13 13 16 6 6 3 3 3 3 3 0 0 0 0 3 3 0 0 0 3 3 0 0 0 3 6 13 16 19 16 23 19 19 19 16 16 13 13 10 6
23 23 19 26 19 23 13 6 3 6 10 6 3 0 0 0 0 0 3 3 3 0 0 0 0 3 0 0 0 3 16 16 13 16 19 19 16 13 13 10 6 6 10
26 29 29 29 23 16 10 10 6 6 13 10 3 3 0 0 0 0 0 0 0 0 0 0 0 0 0 0 0 0 3 3 6 10 10 16 16 13 10 13 13 3 3
23 23 23 26 23 19 19 19 6 10 6 6 10 10 3 3 0 0 0 0 0 0 0 0 0 0 0 0 0 0 0 0 0 6 13 13 13 13 10 10 10 10 6
19 26 32 29 23 19 19 26 16 13 13 6 10 6 6 10 6 0 0 3 6 6 6 0 0 0 0 0 0 0 0 0 0 0 0 3 6 10 10 10 10 6 10
26 23 39 29 26 23 19 26 13 16 16 6 13 10 6 6 10 6 6 3 6 6 6 3 6 0 0 0 0 0 0 0 0 0 0 0 3 3 10 10 10 10 6
35 32 26 26 26 32 26 19 23 19 16 19 23 19 13 16 13 13 13 10 13 6 6 6 3 3 3 0 0 0 0 0 0 0 0 0 0 0 0 0 0 0 0
35 29 35 32 32 32 32 26 23 29 23 23 23 23 23 23 16 16 13 13 13 13 6 6 10 3 3 3 3 0 0 0 0 0 0 0 0 0 0 0 0 0 0
29 32 35 29 32 29 26 26 23 29 26 23 23 26 23 26 19 19 16 16 13 13 13 6 6 3 3 3 3 3 0 0 0 0 0 0 0 0 0 0 0 0 0
26 29 26 23 19 23 23 23 23 29 26 26 26 26 23 23 23 26 19 19 16 16 13 10 6 3 3 3 3 3 0 0 0 0 0 0 0 0 0 0 0 0 0
29 23 23 29 26 26 26 29 32 35 35 29 26 29 29 29 26 23 16 13 13 10 13 10 6 3 3 3 3 3 3 0 0 0 0 0 0 0 0 0 0 0 0
35 29 29 32 29 32 32 32 29 32 32 26 26 26 29 29 26 19 19 16 13 13 10 10 10 0 0 0 3 3 3 3 0 0 0 0 0 0 0 0 0 0 0
35 29 32 32 32 29 29 29 29 32 29 23 23 23 26 26 26 19 19 19 16 13 10 6 3 0 0 0 0 3 3 0 3 3 3 0 0 0 0 0 0 0 0
39 32 29 32 32 32 29 29 29 29 29 26 19 16 16 19 13 16 19 13 10 6 10 10 6 3 0 0 0 0 0 0 0 0 0 3 0 0 0 0 0 0 0
35 32 29 29 29 32 32 29 29 29 29 23 19 16 16 13 16 10 10 6 10 10 6 3 3 3 3 0 0 0 0 0 0 0 0 0 3 0 0 0 0 0 0
35 35 32 26 29 26 26 23 23 23 23 19 19 19 13 16 10 10 6 6 6 6 6 3 3 3 3 0 0 0 0 0 0 0 0 0 0 0 0 0 0 0 0
35 35 35 29 32 32 23 23 23 13 19 16 19 19 16 10 10 6 6 6 6 6 3 3 6 3 3 0 0 0 0 0 0 0 0 0 0 0 0 0 0 0 0
39 39 35 35 32 32 23 16 10 13 13 19 16 19 16 16 10 6 6 6 6 3 3 0 3 3 0 0 0 0 0 0 0 0 0 0 0 0 0 0 0 0 0
42 42 39 35 35 26 23 19 3 16 16 19 23 23 16 16 10 0 6 6 3 3 3 3 0 0 0 0 0 0 0 0 0 0 0 0 0 0 0 0 0 0 0

GEFSMA_con_cape1000_294.txt.gz
Probability
0 0 0 0 0 0 0 0 0 0 0 3 3 3 3 3 3 3 10 19 42 48 39 29 39 39 39 39 45 42 42 42 45 42 42 39 35 32 35 32 42 45 45
0 0 0 0 0 0 0 0 0 3 3 3 3 0 0 3 3 3 6 16 29 42 45 39 35 39 29 32 39 35 35 32 39 45 39 35 39 42 42 39 35 35 39
0 0 0 0 0 0 0 0 3 3 6 3 0 0 3 3 6 6 3 10 16 29 32 32 29 26 26 23 23 26 32 32 29 35 32 26 32 39 35 35 32 35 29
0 0 0 3 3 0 0 3 3 6 3 3 3 3 3 3 3 3 3 3 0 0 16 26 29 26 26 26 26 19 26 29 35 29 26 26 29 26 32 32 32 32 35
0 0 0 3 3 6 3 3 3 3 3 3 3 3 3 3 3 3 3 3 0 0 0 3 19 26 26 26 23 19 26 23 29 29 26 29 26 26 23 23 19 29 29
3 0 0 3 3 6 6 3 3 3 3 3 3 3 3 3 3 3 3 10 6 3 0 0 3 6 16 23 23 23 23 26 19 23 26 29 26 19 16 19 16 13 16
0 3 6 6 3 3 0 3 3 3 3 3 0 0 0 0 3 3 6 6 6 0 6 6 3 3 6 16 23 16 16 16 19 26 23 29 32 29 19 13 16 13 13
0 6 6 3 6 3 3 3 3 3 3 0 3 3 0 0 0 3 3 3 3 3 3 3 0 0 3 3 0 3 13 13 16 19 19 19 19 16 23 19 16 13 13
0 6 13 6 6 10 6 3 3 0 0 0 3 3 0 0 0 0 0 3 3 3 6 3 6 3 0 0 0 0 6 10 10 19 19 19 13 10 10 10 10 10 10
10 13 10 13 10 10 6 10 3 0 0 10 3 0 0 0 0 0 0 0 3 3 6 10 3 3 3 0 0 0 0 0 3 10 10 13 10 10 6 6 6 6 6
13 19 19 19 16 13 10 6 6 6 3 6 3 3 0 0 0 0 6 6 6 6 6 6 3 3 3 3 0 0 0 0 0 3 3 10 3 3 10 6 6 6 10
6 13 13 13 19 23 13 16 10 16 6 3 3 6 6 10 10 3 6 10 6 6 6 6 6 3 3 3 3 0 0 0 0 0 0 3 6 6 3 6 6 10 6
3 10 10 16 19 23 19 19 10 13 13 13 13 13 6 10 10 10 10 13 13 10 10 10 6 3 3 3 3 3 0 0 0 0 0 0 0 3 10 6 6 6 10
3 6 13 16 16 19 23 19 19 19 16 13 16 19 19 16 13 13 13 13 16 13 10 10 6 3 3 6 3 3 3 0 0 0 0 0 0 0 0 0 6 3 6
13 10 10 19 19 19 19 16 23 26 23 19 23 23 23 23 19 19 16 13 16 16 16 13 6 3 3 6 3 3 3 0 0 0 0 0 0 0 0 0 0 0 0
10 16 19 23 23 23 19 16 19 23 19 19 19 19 23 23 23 23 19 16 16 16 16 16 13 6 3 3 3 3 3 0 0 0 0 0 0 0 0 0 0 0 0
16 16 19 23 23 19 19 19 19 19 19 16 16 19 23 26 26 26 23 19 16 16 16 16 10 3 3 3 3 0 0 3 3 0 0 0 0 0 0 0 0 0 0
10 19 19 23 23 19 19 19 19 19 19 16 19 19 23 23 23 23 26 19 16 13 13 13 13 3 3 3 0 0 0 0 0 0 0 0 0 0 0 0 0 0 0
19 19 19 23 23 19 19 19 19 19 19 23 26 23 23 23 23 23 19 19 13 13 13 13 13 10 0 0 0 0 0 0 0 0 0 0 0 0 0 0 0 0 0
26 29 26 26 19 19 16 16 23 26 26 26 26 23 23 23 23 19 19 16 16 16 10 10 13 3 3 3 0 0 0 0 0 0 0 0 0 0 0 0 0 0 0
23 26 26 19 16 19 26 26 26 26 26 26 29 23 23 23 19 19 19 16 16 16 10 10 6 0 3 3 0 0 0 0 0 0 0 0 0 0 0 0 0 0 0
26 26 26 23 23 23 26 19 23 26 26 26 26 26 16 19 19 10 6 10 10 13 13 10 3 0 0 3 3 3 3 0 0 0 0 0 0 0 0 0 0 0 0
29 29 26 26 26 26 19 10 3 19 19 26 26 23 19 19 13 13 13 10 3 0 3 6 6 6 0 0 0 3 3 0 0 0 0 0 0 0 0 0 0 0 0
23 26 26 23 26 23 19 3 0 3 16 23 23 19 19 16 13 10 10 10 10 10 3 3 3 3 3 0 0 0 0 0 0 0 0 0 0 0 0 0 0 0 0
19 19 16 19 19 19 16 0 0 6 16 19 23 23 26 23 16 3 3 6 3 3 0 0 0 3 3 0 0 0 0 0 0 0 0 0 0 0 0 0 0 0 0
19 19 19 19 19 23 13 3 0 6 16 16 13 16 13 13 10 0 6 10 10 6 6 0 0 0 0 0 0 0 0 0 0 0 0 0 0 0 0 0 0 0 0

GEFSMA_con_cape1000_300.txt.gz
Probability
45 45 68 58 39 32 32 42 39 29 42 35 29 23 19 16 10 10 32 29 29 35 39 39 32 35 32 35 29 29 26 26 29 32 39 35 32 35 29 23 23 29 35
55 48 52 52 42 45 39 42 42 48 42 42 32 35 19 19 23 32 26 32 29 35 39 32 32 35 39 39 39 45 39 35 35 39 35 29 32 29 29 26 32 32 29
52 48 48 42 45 45 52 52 52 48 61 42 42 29 29 39 35 26 32 35 39 29 32 32 32 35 35 35 32 35 35 32 32 32 32 29 26 32 32 32 32 32 29
48 52 45 42 48 42 48 61 52 45 45 39 45 45 45 55 32 32 29 26 29 32 32 32 29 29 29 29 29 26 26 32 29 32 29 26 23 29 29 26 29 29 29
42 42 55 61 52 48 48 45 58 55 42 39 39 35 32 39 35 26 29 26 26 32 42 29 29 29 26 26 23 23 26 26 29 26 26 23 26 29 29 26 29 29 26
52 55 52 61 42 52 55 65 71 58 45 42 19 19 26 35 32 35 23 23 26 16 16 29 42 26 26 26 26 26 26 26 16 13 23 23 32 32 29 29 26 23 23
52 58 42 58 55 52 58 55 58 52 35 39 39 29 32 16 23 32 32 29 32 23 23 29 32 35 26 19 19 23 23 23 16 16 19 19 26 29 23 23 16 13 13
52 39 61 42 61 68 68 65 71 45 29 35 45 39 16 23 26 13 29 26 26 26 26 26 35 32 32 32 23 13 19 23 16 10 16 19 16 23 23 16 16 10 13
48 48 45 45 55 45 61 65 68 58 42 39 32 19 13 13 16 16 16 26 32 39 35 29 29 29 23 29 29 16 10 13 13 6 13 19 16 13 19 19 13 13 10
55 48 52 55 65 48 65 55 48 48 55 39 42 48 39 32 29 23 23 26 32 42 42 19 23 32 35 35 23 6 6 10 10 10 13 13 16 10 6 3 6 10 13
58 52 48 55 61 52 61 65 61 52 39 45 39 32 39 45 32 35 35 32 29 29 29 29 23 16 29 39 35 23 10 6 0 3 6 13 13 10 10 3 3 3 6
61 45 48 55 61 61 68 65 61 58 52 55 52 29 29 32 35 32 39 35 35 32 29 26 23 23 29 26 19 6 3 0 0 0 0 3 10 13 10 3 3 6 6
52 61 39 61 58 58 65 71 61 61 55 58 58 48 42 42 35 39 39 35 39 35 39 32 23 23 19 19 29 3 3 0 0 0 0 0 3 3 6 10 6 13 6
35 48 58 58 58 55 48 58 45 58 58 65 45 65 61 48 42 39 39 32 32 26 26 23 26 26 23 29 19 3 13 0 0 0 0 0 0 0 3 3 3 6 6
48 48 55 58 58 61 58 61 61 61 65 65 58 61 58 45 35 35 39 39 29 26 26 32 26 29 26 23 10 16 29 3 0 0 0 0 0 0 0 0 3 3 3
55 52 52 58 58 58 61 65 65 65 61 61 61 58 48 39 42 35 35 32 29 26 23 23 32 23 35 16 10 23 29 6 0 0 0 0 0 0 0 0 0 0 0
58 58 48 58 58 55 58 65 65 61 58 52 55 45 52 45 39 39 32 29 32 29 26 23 23 32 45 39 19 26 23 16 6 0 0 0 0 0 0 0 0 0 0
55 52 48 45 48 48 48 52 52 52 52 52 45 45 48 45 52 45 42 35 39 39 32 39 32 32 42 39 42 35 16 10 10 0 0 0 0 0 0 0 0 0 0
55 48 48 45 45 52 52 52 52 52 52 48 45 45 45 45 45 39 42 39 35 29 42 32 29 39 32 29 42 32 19 32 6 6 0 0 0 0 0 0 0 0 0
58 55 45 48 48 48 48 52 52 52 52 48 48 48 52 52 52 52 45 45 42 42 42 35 26 26 35 29 39 26 23 29 13 6 6 0 0 0 0 0 0 0 0
52 58 52 48 45 45 39 45 45 42 42 42 45 48 48 45 39 42 32 42 42 42 35 35 32 29 29 35 29 26 23 26 32 13 13 6 3 3 0 0 0 0 0
58 52 45 42 42 39 29 23 32 39 39 39 42 42 42 45 26 19 16 13 16 39 42 35 26 29 39 29 42 23 23 29 32 26 13 10 6 6 3 3 0 0 0
48 45 42 39 39 39 23 6 3 32 35 35 39 39 39 35 32 39 16 6 6 3 6 39 35 42 35 39 39 32 42 32 35 26 23 13 16 13 6 3 0 0 0
42 42 39 32 32 32 13 3 0 19 32 42 42 39 42 42 35 35 35 29 26 29 23 16 29 35 29 35 32 32 32 32 32 29 29 16 16 16 3 13 3 0 0
42 39 39 39 35 35 10 3 0 35 42 42 42 42 35 35 35 19 32 35 32 32 16 3 6 10 6 3 6 19 23 16 16 13 16 13 10 16 13 16 3 0 0
39 39 39 42 42 42 26 3 0 32 35 42 42 39 26 29 29 10 32 35 32 32 26 23 3 3 3 3 0 13 23 23 16 13 16 16 10 19 10 16 16 6 3

GEFSMA_con_cape1000_306.txt.gz
Probability
77 71 74 74 61 71 61 65 58 68 58 48 29 23 29 35 32 19 19 48 42 42 35 32 32 29 26 32 35 29 26 29 35 32 39 42 23 23 29 32 35 35 42
84 74 74 68 68 68 77 77 68 65 58 55 48 48 39 39 48 39 26 32 52 45 42 42 39 39 42 42 39 32 35 29 39 42 35 32 26 35 26 29 32 35 39
81 84 81 74 77 77 71 71 71 74 65 61 58 61 55 58 55 52 45 35 29 39 39 39 39 42 39 39 42 35 35 39 39 39 42 48 39 35 32 29 26 39 39
81 90 87 71 84 81 84 84 87 71 71 61 65 65 65 65 35 45 45 48 48 13 32 39 42 39 39 35 35 32 32 32 32 32 35 39 42 35 35 32 32 29 32
71 77 81 90 77 84 84 58 74 74 65 68 58 61 58 58 55 42 48 48 48 45 19 29 35 35 35 35 35 32 32 29 32 35 26 32 35 35 32 29 29 26 29
74 81 84 90 87 84 87 87 81 77 71 68 45 52 52 55 48 48 42 39 42 35 42 26 32 29 35 35 29 29 32 29 32 26 29 26 29 29 35 32 29 29 29
74 84 81 87 90 94 84 74 81 71 61 68 68 65 45 42 45 55 52 42 35 35 42 42 42 29 23 32 35 32 29 29 29 26 26 26 26 29 26 26 23 19 19
84 65 90 84 90 90 77 77 74 68 68 61 61 61 52 42 42 42 52 52 48 42 39 35 45 48 32 19 19 26 35 26 26 23 26 29 26 23 23 23 19 19 13
77 84 77 84 84 84 77 74 77 74 68 58 58 61 61 48 48 48 45 42 42 48 42 45 39 48 48 29 26 13 29 32 32 23 23 23 19 13 16 16 16 19 16
71 71 77 81 81 77 77 68 77 77 68 65 61 68 68 68 48 45 42 52 39 42 48 35 39 35 39 39 29 23 19 16 23 23 26 23 23 23 16 13 13 13 10
77 74 81 77 77 74 74 74 77 74 71 68 65 61 58 55 48 48 42 42 39 42 42 39 42 39 45 39 29 26 23 16 6 16 19 19 19 26 23 13 16 13 10
84 71 71 71 71 71 71 71 71 71 74 74 65 65 65 52 55 48 45 52 48 45 48 42 42 48 39 39 29 19 13 10 3 3 10 16 19 23 19 19 16 13 16
74 74 68 71 71 71 71 71 68 65 68 68 68 65 68 65 55 45 39 42 39 42 45 45 42 39 32 42 19 13 10 3 0 0 0 0 0 10 10 13 19 19 19
71 77 68 65 71 71 65 65 65 61 65 65 61 65 65 65 55 52 45 45 39 42 42 42 42 45 29 35 19 6 10 0 0 0 0 0 0 0 3 6 6 10 13
71 71 71 71 68 71 71 71 71 68 68 68 68 68 61 58 58 55 48 48 42 39 35 42 42 42 42 32 10 6 19 6 0 0 0 0 0 0 0 3 3 3 3
71 68 71 65 65 68 65 68 68 74 74 71 68 61 61 52 52 52 52 48 48 42 35 32 42 42 45 26 13 16 23 6 6 0 0 0 0 0 0 0 0 3 3
65 65 61 65 68 68 68 65 65 61 55 58 61 58 55 52 55 52 48 48 45 45 45 45 45 45 42 42 19 29 29 16 6 6 0 0 0 0 0 0 0 0 3
68 65 61 58 58 61 61 55 48 52 52 55 55 58 52 48 52 48 48 48 42 48 45 39 39 45 42 45 39 35 32 19 19 6 3 0 0 0 0 0 0 0 0
58 65 61 55 58 55 55 48 48 48 48 52 52 55 55 52 52 55 52 45 45 42 45 42 39 39 39 39 39 39 32 45 32 6 6 0 0 0 0 0 0 0 0
68 65 61 48 52 48 48 48 48 48 52 52 52 48 48 48 48 48 45 48 48 45 45 42 42 39 35 35 32 35 39 39 32 10 6 6 0 0 0 0 0 0 0
65 68 61 61 52 42 39 35 39 45 52 52 52 52 45 35 35 35 35 39 35 35 35 35 35 35 35 35 32 35 19 32 32 26 16 10 6 3 0 0 0 0 0
65 65 61 58 52 32 29 26 32 39 42 48 45 45 42 39 32 23 19 23 26 39 35 35 32 32 29 26 29 26 23 23 23 29 26 19 13 10 6 3 0 0 0
61 61 52 58 52 39 23 10 0 29 42 39 45 52 42 39 35 35 26 16 6 3 3 35 39 32 32 29 32 26 19 19 29 29 23 16 23 19 6 0 0 0 0
58 55 55 52 45 35 23 19 3 13 29 42 35 45 48 45 35 35 39 35 32 26 13 6 16 26 29 32 32 29 29 26 32 26 23 16 13 13 10 13 0 0 0
58 55 52 48 48 39 29 3 3 26 35 39 35 42 45 39 35 26 32 35 35 32 23 10 10 16 10 10 13 23 26 23 13 13 26 23 19 10 6 6 0 0 0
55 52 52 52 52 52 32 3 0 29 35 32 32 29 26 23 26 19 26 32 32 32 26 26 10 3 3 3 0 13 16 13 13 13 16 16 16 13 10 10 13 3 0